Temp
9 9 9 9 9 9 9 9 9 9 8 9 8 8 8 8 8 8 8 8 8 8 8 8 8 8 9 9 9 9 9 10 10 11 12 12 12 13 14 14 15 15 16 15 17 16 17
9 9 9 9 9 9 8 8 8 8 8 8 9 8 8 8 8 8 8 8 8 8 8 8 8 8 9 8 10 10 10 10 10 11 12 11 12 13 14 15 15 15 16 17 16 16 16
9 9 9 9 9 9 9 9 9 8 8 8 8 8 7 7 8 7 7 8 8 7 8 8 8 8 9 9 10 10 10 10 10 12 12 12 13 14 14 15 15 14 15 16 16 16 16
9 9 9 9 9 8 8 9 9 8 8 8 8 7 7 7 7 7 7 7 7 8 7 8 8 8 8 10 10 10 11 10 11 12 13 12 13 13 13 14 14 15 16 15 15 16 15
9 9 9 8 9 8 8 9 8 8 8 8 7 8 7 7 7 7 7 7 8 8 8 8 8 8 9 10 9 10 10 10 11 12 12 12 13 13 13 13 13 13 15 15 14 16 15
9 8 8 8 8 8 8 8 8 8 8 8 7 8 7 7 7 7 7 8 8 8 8 8 8 8 9 9 10 10 10 10 12 11 12 11 12 12 11 13 14 14 13 14 15 15 15
9 9 8 8 8 8 8 8 7 7 7 7 7 7 7 7 7 7 7 8 7 7 8 8 8 8 9 9 10 10 10 9 11 12 11 11 12 12 13 12 13 13 13 14 15 15 15
9 8 8 8 8 8 8 8 7 7 7 7 7 7 7 6 7 6 7 6 8 8 7 8 8 8 9 8 9 9 10 9 11 10 9 9 11 12 13 14 13 13 13 14 15 15 16
9 8 8 8 8 8 7 7 7 7 7 7 7 7 7 6 7 6 7 7 8 8 7 8 9 8 8 8 9 9 10 9 9 9 9 10 11 13 14 13 13 13 13 13 15 14 15
10 8 9 7 7 7 7 7 7 7 7 7 7 7 6 6 6 6 7 8 8 8 6 8 8 8 9 8 8 9 9 10 9 9 9 9 12 13 14 14 13 13 13 14 14 14 15
9 8 8 7 7 7 7 7 7 7 7 7 6 6 6 6 6 6 7 8 8 7 8 8 9 8 9 9 9 9 10 11 9 9 9 10 12 13 13 14 14 14 13 13 13 13 14
9 8 8 7 6 7 6 6 6 6 6 6 6 6 6 6 6 7 7 7 7 4 8 8 8 8 9 9 9 10 10 11 10 10 10 10 11 12 13 13 14 12 12 12 12 13 13
9 8 8 7 6 6 6 6 6 6 6 6 6 6 6 6 6 7 7 7 6 6 7 8 9 8 9 9 10 9 9 10 10 10 10 11 11 11 11 13 13 13 12 12 13 12 13
10 9 9 6 6 6 6 6 6 6 6 6 6 6 6 7 7 7 7 6 7 8 9 9 9 9 10 10 10 10 10 10 10 11 10 12 12 11 10 13 13 13 13 11 11 11 12
9 9 8 7 6 6 6 6 6 6 5 6 6 6 7 7 7 7 7 3 5 7 9 10 9 8 9 10 10 11 10 10 11 11 10 11 11 10 10 11 12 13 13 11 8 7 10
10 9 8 6 6 5 6 6 6 6 5 7 7 7 6 7 7 7 7 7 7 9 9 9 10 9 8 11 10 10 10 12 11 11 11 11 11 11 11 11 11 12 12 12 9 10 12
10 9 8 6 6 6 5 5 5 5 7 8 8 7 7 7 7 7 6 6 9 10 10 10 10 10 10 11 10 10 10 11 12 10 10 10 11 11 12 12 11 12 10 10 11 10 12
9 9 8 6 7 6 5 5 6 6 7 8 6 8 6 7 8 7 5 7 11 12 10 11 12 11 11 11 12 10 10 10 11 11 11 11 10 11 11 11 11 11 11 11 11 10 8
9 9 7 7 7 6 6 6 7 7 8 8 4 7 6 6 9 6 7 10 11 11 11 12 12 12 11 10 10 11 10 11 11 11 11 11 9 11 11 11 10 12 10 10 9 8 8
9 8 7 7 7 6 6 7 8 8 8 8 4 5 7 7 7 7 9 10 11 11 11 11 11 12 11 10 9 10 11 12 12 12 12 11 9 10 10 11 10 10 10 10 10 9 11
9 8 7 7 7 6 7 7 8 8 7 8 2 5 5 8 7 7 8 9 11 12 11 10 11 9 11 11 10 10 10 11 12 12 10 11 8 8 10 11 10 11 11 11 11 12 12
8 8 7 7 6 6 7 7 7 8 7 6 3 4 3 4 6 8 7 8 9 9 10 11 10 9 9 9 10 10 10 10 11 10 10 9 8 8 8 10 10 10 9 9 11 11 11
8 8 7 6 6 6 6 7 7 8 7 3 1 2 3 4 6 9 8 8 8 8 10 10 10 10 9 9 9 9 9 9 10 9 8 9 8 8 9 8 9 10 10 10 10 10 11
8 8 7 6 5 6 6 6 6 7 8 6 2 2 4 5 5 6 7 8 7 7 9 9 9 11 9 7 8 9 8 8 8 7 8 7 7 5 5 7 8 11 11 11 10 10 10
8 7 7 6 6 5 5 5 6 6 7 7 3 2 2 3 3 4 5 5 7 7 8 9 8 7 5 9 10 10 9 11 10 9 9 8 7 6 7 6 9 12 11 11 11 12 11
7 7 6 5 6 5 5 5 5 5 6 6 3 3 2 3 2 2 3 3 4 5 8 8 8 6 8 8 9 10 8 10 10 10 10 10 10 9 7 8 9 11 12 11 11 10 12
8 7 6 6 5 6 5 5 5 5 6 6 3 4 3 1 1 2 2 3 3 3 5 5 5 5 7 8 9 9 7 9 9 9 9 10 10 9 9 10 9 10 10 9 11 11 10
8 7 6 5 6 5 5 5 5 5 5 5 2 3 4 0 1 2 2 2 2 1 4 4 5 5 6 7 8 7 8 7 8 9 9 9 8 8 9 10 8 10 11 11 9 8 8
7 7 5 5 5 5 5 5 5 5 5 5 3 3 5 1 1 3 3 3 3 3 1 1 3 5 3 7 7 7 7 7 5 8 7 9 9 9 8 9 9 8 9 7 6 7 7
Height
845 844 841 837 835 833 832 828 825 822 818 815 811 809 806 803 801 798 797 795 792 790 787 785 784 783 784 785 784 782 783 782 783 786 788 790 794 798 798 799 801 803 805 814 816 817 818
844 843 840 837 835 831 830 827 823 821 817 813 810 808 805 802 802 799 797 795 792 790 788 786 785 784 785 786 781 781 780 781 782 784 785 790 792 794 797 798 801 801 805 807 811 816 820
843 840 839 835 833 830 828 825 821 819 816 813 809 807 804 802 800 798 796 794 792 789 788 785 785 785 785 783 780 779 778 780 780 782 784 789 790 793 794 796 796 802 809 809 811 813 820
839 838 837 834 831 829 825 823 819 816 814 811 807 804 802 800 798 795 794 793 790 789 787 785 784 785 784 781 779 778 777 774 775 781 784 788 790 792 796 795 799 804 806 815 814 813 821
835 835 834 832 829 826 823 821 817 814 812 809 806 802 799 798 795 793 791 790 789 788 787 785 784 785 784 780 780 777 776 773 774 779 784 788 791 793 797 800 808 808 809 811 816 811 817
830 831 831 829 827 824 821 819 816 812 809 806 803 799 797 796 792 791 789 788 788 787 787 785 784 788 782 783 779 779 778 774 775 779 786 787 790 796 801 801 801 805 813 812 811 815 817
827 827 827 825 824 822 819 816 813 809 806 803 800 796 795 790 790 790 788 788 790 790 787 787 785 785 783 781 778 777 778 778 777 780 786 788 786 787 792 801 800 809 812 814 811 811 816
823 823 823 822 821 819 816 813 810 806 803 800 797 794 792 790 789 788 787 786 787 789 789 786 785 783 782 782 780 779 779 782 777 787 798 800 789 790 790 797 802 805 814 815 811 809 813
820 819 820 820 818 816 813 811 808 804 800 797 794 792 789 788 786 786 786 786 786 788 790 786 785 784 785 782 781 781 781 784 783 794 795 789 790 789 789 798 803 810 811 818 813 814 814
815 816 816 816 815 813 810 808 805 801 797 794 791 789 787 786 787 784 784 784 785 787 794 788 787 786 786 784 784 781 780 784 787 792 796 796 788 790 792 797 801 808 806 808 812 815 820
812 812 812 812 812 810 808 805 802 798 793 791 788 786 783 782 783 785 785 786 786 788 792 792 787 787 784 785 786 784 782 780 788 792 797 798 787 789 795 795 798 804 806 808 813 819 819
807 808 809 809 809 808 805 802 799 795 791 787 785 781 780 780 782 784 786 787 788 807 789 788 789 787 786 784 785 784 782 781 786 792 796 796 792 792 794 798 796 805 810 814 819 818 826
802 805 805 806 806 805 802 799 796 792 789 784 781 777 778 780 782 783 786 788 798 802 789 789 786 788 787 784 783 787 784 785 787 791 793 792 793 797 796 801 800 804 812 826 828 832 824
798 800 801 803 803 801 799 796 793 789 786 782 780 779 780 782 782 787 789 795 795 784 777 784 783 786 783 781 784 782 787 784 786 784 789 784 797 800 803 798 801 805 808 819 827 830 823
794 797 797 799 800 798 796 793 789 787 782 779 779 780 782 784 786 787 787 812 805 793 776 778 787 791 786 780 782 778 782 782 779 782 791 790 798 805 806 804 802 805 809 817 841 858 840
790 792 794 796 796 794 793 790 787 783 779 777 779 781 784 784 786 787 791 792 788 780 779 780 778 784 790 778 784 781 784 776 782 783 784 791 795 800 804 804 805 803 809 817 836 840 824
786 789 790 793 792 790 790 787 784 780 776 776 778 781 786 787 789 788 796 790 778 773 774 777 776 778 776 777 781 784 786 781 779 785 786 790 790 804 803 803 806 808 816 820 819 829 816
781 785 786 790 789 788 787 784 781 778 775 776 778 780 787 788 787 785 793 783 768 767 770 768 769 771 775 773 775 784 786 784 779 784 785 788 798 800 803 804 805 808 810 812 820 827 842
776 780 784 786 785 785 784 782 779 776 774 774 783 784 787 788 784 791 783 773 769 768 768 768 767 766 774 781 786 782 783 782 783 784 787 787 805 803 806 808 809 804 810 811 818 826 834
771 776 780 782 782 782 781 779 776 773 772 774 782 791 787 786 785 787 782 777 771 769 771 768 770 767 770 777 782 783 783 780 780 779 779 782 800 801 802 801 804 809 805 807 810 824 811
767 772 777 779 780 780 779 776 774 771 771 773 781 787 786 782 785 785 782 778 770 766 769 773 771 777 771 775 781 785 783 780 781 782 784 786 805 806 796 794 797 798 799 801 805 798 797
763 769 774 776 777 777 776 774 772 769 770 771 781 784 789 790 787 782 785 784 779 777 773 772 776 779 776 781 783 783 784 784 784 787 790 795 810 807 810 802 802 803 803 804 798 795 794
760 766 771 773 775 775 774 773 771 769 769 771 778 780 781 791 786 780 785 782 783 782 778 775 778 776 781 783 784 784 784 785 783 789 798 799 805 813 810 814 807 804 792 794 794 790 785
757 763 768 771 773 774 773 772 771 769 766 765 771 776 782 791 792 790 785 782 786 787 780 781 778 775 787 785 785 784 786 788 789 794 793 806 811 825 834 818 824 785 786 786 791 787 787
754 760 765 770 772 772 772 772 771 770 768 766 770 773 780 797 798 795 792 792 789 788 786 783 786 787 785 783 785 786 794 783 789 791 793 797 808 824 824 831 805 782 783 785 784 782 782
750 758 763 769 770 771 772 772 772 771 769 769 771 773 776 790 805 804 801 802 801 799 788 787 787 785 782 786 787 790 800 790 793 791 793 792 794 803 820 819 804 787 781 782 784 791 777
745 755 762 766 769 770 772 773 773 772 770 769 773 775 776 795 805 804 806 807 805 802 799 795 793 792 787 791 789 794 803 792 795 795 795 795 796 804 807 802 800 787 783 784 785 790 782
742 752 761 765 767 770 771 773 774 772 771 770 774 775 777 795 805 804 803 806 806 810 803 803 798 799 798 795 796 804 802 806 801 795 797 798 805 805 804 797 813 787 781 786 795 789 786
741 749 759 763 766 769 772 774 774 774 773 772 776 777 778 786 804 806 805 805 807 810 810 808 808 805 808 797 801 803 807 808 816 801 801 800 797 797 801 797 791 793 790 795 795 793 786
Wind_Speed
10 10 11 12 14 15 17 17 18 18 17 17 18 18 14 13 14 14 13 12 11 10 11 11 6 4 3 0 3 2 6 4 5 9 12 7 8 5 5 6 6 7 10 13 19 2 2
11 10 10 11 13 14 16 17 17 19 19 17 17 18 17 13 13 13 12 11 9 8 8 7 8 2 1 2 4 6 7 9 10 12 14 7 8 6 4 9 7 7 7 17 12 10 4
12 10 10 10 12 14 15 17 19 18 18 18 17 16 17 16 15 12 12 11 10 6 6 5 7 4 2 4 4 7 3 11 10 17 14 14 9 5 3 5 5 3 8 7 10 14 7
12 11 11 10 13 13 14 17 18 18 19 18 17 16 17 16 14 13 12 12 9 6 4 4 4 4 2 4 4 2 9 14 12 17 15 17 7 4 2 3 4 4 6 6 5 14 7
12 11 11 10 12 14 15 17 18 18 18 18 17 18 16 15 14 13 11 11 6 5 3 2 2 3 2 2 6 8 7 6 15 16 16 12 4 4 3 6 4 3 7 8 7 12 9
12 10 10 10 12 14 15 17 18 18 17 19 17 18 17 15 12 13 12 8 4 3 2 3 1 1 3 4 2 8 3 5 10 12 6 7 4 4 3 5 12 9 5 3 4 8 6
13 10 10 10 11 14 16 17 18 19 19 18 19 18 17 14 12 10 11 3 3 3 2 1 2 2 2 10 2 5 7 5 9 6 5 1 8 16 10 6 4 7 5 6 3 9 7
15 9 9 10 10 14 16 18 18 19 18 19 19 18 17 14 12 7 7 1 2 1 1 2 4 2 3 4 2 5 4 2 7 9 7 3 3 7 10 7 5 8 6 3 2 9 7
12 9 9 10 10 13 16 18 18 18 18 18 18 18 16 15 9 5 4 2 4 2 2 1 0 1 2 5 3 5 3 4 10 5 5 3 5 6 10 6 7 2 8 5 5 4 2
12 10 9 9 10 12 15 17 18 17 19 19 19 18 15 11 3 2 2 7 4 2 2 1 2 1 1 2 4 3 3 3 4 7 4 3 9 11 7 8 5 3 5 7 10 9 5
12 10 8 8 9 11 14 16 17 18 18 19 18 17 12 4 0 2 1 8 2 2 3 1 1 3 2 2 3 5 2 1 5 7 3 2 12 16 12 7 6 4 5 5 4 4 3
13 9 8 7 9 11 13 16 17 18 18 19 19 14 4 4 5 1 7 5 1 4 1 2 1 1 2 2 0 2 3 4 5 5 1 5 2 3 5 1 1 7 6 6 4 2 2
12 9 7 6 8 10 13 15 16 17 18 18 17 6 6 6 1 7 6 1 3 4 3 4 3 2 1 1 1 2 2 5 4 5 4 5 3 2 3 6 4 4 5 2 1 1 4
12 10 6 6 6 9 12 14 15 17 17 16 6 7 8 3 7 9 2 3 5 1 4 3 3 2 2 3 1 4 5 3 1 4 2 3 7 1 4 3 6 3 4 4 6 4 3
13 9 6 5 6 7 10 13 13 16 14 9 7 9 5 4 9 3 2 4 5 3 1 6 4 3 1 2 3 0 2 3 3 3 3 4 4 3 3 1 2 3 1 3 6 3 2
14 10 5 5 6 6 10 11 13 15 12 4 7 4 4 5 5 0 2 2 1 3 5 1 3 5 4 3 3 1 1 1 3 2 1 3 5 4 2 0 4 3 6 2 2 3 3
15 10 6 6 5 6 9 10 13 15 5 10 4 3 3 6 2 0 0 4 3 4 4 5 4 3 2 5 5 3 4 2 2 2 1 4 3 3 3 2 6 3 1 4 3 2 3
16 11 7 6 4 5 7 9 13 11 4 8 3 2 2 7 1 1 2 4 2 0 3 2 2 4 2 3 5 0 5 1 5 5 4 3 4 4 2 1 3 3 3 4 3 4 1
18 13 9 5 2 3 6 9 12 7 5 7 3 2 3 2 1 2 4 3 0 3 3 3 2 2 6 5 4 3 2 2 6 5 6 5 2 4 2 3 2 3 4 3 3 3 5
20 15 10 6 2 2 6 8 12 6 6 4 3 2 1 1 1 1 3 3 1 2 3 2 2 3 3 3 4 4 2 2 3 2 5 5 3 4 5 4 4 5 5 5 3 2 4
22 17 12 7 3 1 5 7 11 3 7 3 3 1 1 3 2 1 1 2 2 3 3 7 5 5 2 3 3 3 2 3 5 4 4 3 3 2 1 1 2 3 4 9 12 13 10
24 18 13 9 5 1 4 7 9 3 6 5 4 4 2 1 1 1 3 4 3 4 4 3 5 6 5 4 2 4 5 2 3 4 3 4 1 2 4 3 1 4 7 7 13 17 13
25 20 15 10 7 2 4 6 9 7 6 4 3 2 3 3 1 2 0 1 2 2 4 4 2 3 7 2 2 2 1 2 5 6 4 4 4 2 2 2 3 6 9 12 4 5 8
26 21 16 12 9 5 5 7 9 12 4 7 5 5 3 1 3 2 1 2 3 3 2 3 5 3 1 5 0 0 6 6 7 5 3 5 4 2 2 2 2 4 2 1 8 6 7
27 22 17 14 10 8 8 8 9 8 12 13 8 3 3 3 1 3 5 3 2 4 4 3 5 0 3 2 2 3 4 2 3 3 3 3 4 3 3 2 6 2 1 2 2 3 3
28 23 19 15 13 11 9 9 8 7 9 16 12 7 4 6 2 3 2 4 3 3 1 3 3 7 1 3 2 2 3 3 1 2 3 4 5 3 2 1 3 4 2 2 2 2 3
31 25 20 17 15 12 10 8 6 7 10 9 10 6 6 4 2 1 3 2 0 0 1 1 5 6 2 1 2 2 1 2 3 5 3 2 2 3 3 3 6 5 4 5 2 3 6
31 27 22 19 16 13 11 7 6 6 7 6 11 8 5 3 1 4 3 3 2 3 1 3 1 3 4 3 2 1 1 1 2 1 3 5 4 3 1 3 4 5 2 3 4 6 7
35 29 24 20 16 13 10 7 6 7 6 8 7 14 15 8 4 4 10 8 4 1 2 2 3 3 1 1 2 2 2 3 1 1 3 0 2 1 6 4 1 5 4 4 2 4 6
Wind_Direction
323 329 340 343 347 348 347 346 344 342 347 345 340 340 346 349 349 353 353 355 1 9 11 17 21 55 130 247 256 112 329 19 297 232 189 180 159 149 171 167 137 199 161 189 215 135 99
314 321 329 338 340 343 343 343 345 342 343 338 341 340 338 348 340 341 348 347 345 355 8 15 18 3 54 240 306 260 309 314 266 210 181 201 170 186 169 173 163 183 185 197 182 170 248
306 311 319 331 332 337 337 338 339 340 339 343 342 341 334 334 340 327 331 334 331 331 345 360 359 1 263 261 282 299 299 289 263 201 170 191 204 143 162 132 156 138 164 140 175 166 170
297 301 308 319 328 328 332 332 336 338 337 339 343 339 334 331 326 330 321 325 324 305 335 348 6 359 263 297 285 330 333 306 215 194 182 184 218 117 99 93 50 138 144 177 160 158 168
291 292 300 312 320 322 326 327 332 333 334 336 339 332 336 333 323 321 323 318 319 304 301 334 57 61 306 337 69 307 328 296 166 185 185 160 159 144 74 127 113 203 183 181 172 183 160
276 284 292 302 314 319 322 325 330 330 333 331 335 331 334 329 319 315 317 308 283 327 285 293 336 58 357 308 275 285 61 49 166 141 141 177 172 130 109 169 190 179 118 146 162 183 171
264 279 284 294 304 315 317 324 328 332 331 328 328 327 333 324 320 316 320 320 23 343 16 197 200 232 299 319 358 11 55 345 175 92 167 289 171 187 163 150 126 118 121 121 134 172 175
259 263 280 290 303 312 319 323 330 328 328 326 327 328 329 326 320 308 300 152 193 176 109 227 270 282 290 320 322 4 57 42 162 134 127 125 137 149 126 128 126 138 125 155 71 170 167
252 255 281 287 304 312 319 324 327 327 327 327 327 327 326 324 313 274 230 206 154 161 74 326 184 342 325 345 348 4 58 102 111 102 80 108 157 162 142 134 115 87 162 176 151 139 250
250 252 287 284 299 317 321 325 326 326 326 326 325 324 323 322 300 191 206 175 147 183 82 112 63 24 328 349 17 18 20 94 48 100 77 7 148 158 162 154 129 139 187 156 142 139 194
237 248 274 281 301 322 324 324 325 326 326 328 324 324 319 271 215 170 200 165 152 100 93 63 57 310 277 77 168 357 343 128 95 121 117 68 168 156 170 158 145 191 145 130 108 99 123
232 249 266 279 306 321 326 325 327 326 330 330 329 322 301 168 200 244 149 160 113 44 52 114 333 90 34 30 90 76 21 53 59 82 73 256 84 98 170 129 182 134 94 58 61 88 283
228 241 262 278 302 325 328 326 329 328 332 336 338 346 157 159 152 171 153 123 28 96 199 144 120 178 221 108 145 136 91 130 144 131 189 84 82 58 59 102 35 87 91 86 108 190 222
239 230 258 274 302 325 330 329 332 329 335 343 357 110 125 85 135 148 129 40 63 262 59 149 123 89 138 163 66 167 141 141 102 114 76 113 139 26 346 110 155 171 149 149 173 188 212
214 226 242 268 294 326 331 331 332 326 334 348 126 117 86 91 136 159 88 61 201 213 126 132 97 119 164 229 151 42 65 137 149 141 129 121 93 141 60 126 95 182 164 132 103 30 69
217 219 220 253 289 323 326 329 329 328 336 119 141 105 51 139 162 253 73 279 143 209 115 110 172 193 162 165 83 112 216 135 124 170 200 171 106 32 108 243 42 137 154 74 12 138 235
209 205 207 242 284 324 324 333 336 331 356 140 114 88 19 146 143 140 170 231 253 209 191 157 187 133 107 138 156 183 204 14 115 119 44 134 82 116 107 216 167 128 132 55 112 120 186
199 196 197 235 288 328 327 338 341 335 124 151 111 88 111 150 263 346 238 206 248 40 170 237 169 96 71 113 155 182 209 254 176 164 132 197 120 130 134 89 125 105 171 151 146 234 131
190 190 190 220 277 338 336 344 343 339 181 150 98 89 102 132 313 284 282 286 14 27 36 26 68 85 146 176 112 219 163 276 167 161 164 185 94 104 117 157 352 188 201 152 122 71 188
182 180 187 204 245 347 342 351 347 340 163 148 106 104 127 212 18 260 335 353 26 30 47 18 34 78 115 81 21 148 118 109 156 100 91 90 109 149 177 186 131 171 203 168 161 157 196
175 176 183 192 178 310 350 3 355 358 158 175 36 177 190 175 237 230 8 324 309 42 12 15 30 34 13 109 83 95 80 89 53 27 37 78 95 74 314 109 127 179 196 202 217 227 223
172 173 182 179 174 165 9 17 11 26 156 95 129 137 48 121 270 157 357 356 37 329 40 1 81 24 47 89 60 175 135 133 178 70 62 6 110 91 9 20 210 250 240 220 228 242 254
171 173 177 170 171 128 44 37 36 23 187 114 125 93 104 322 359 121 14 32 26 280 8 63 299 104 60 19 305 292 273 130 153 139 138 152 138 117 238 340 290 278 237 213 208 231 226
172 172 171 166 162 128 88 62 52 48 79 125 143 123 108 52 79 74 324 107 47 2 105 348 23 78 19 323 336 43 56 84 86 57 120 132 110 86 182 3 356 256 358 206 216 265 234
170 169 165 166 153 129 111 85 70 68 62 108 129 127 120 102 55 39 21 24 14 351 39 38 19 358 298 16 62 55 358 62 38 47 81 101 113 83 117 194 285 12 27 124 151 314 200
168 165 165 163 151 134 122 103 83 83 85 85 82 92 97 122 2 289 31 27 55 354 47 19 6 322 20 68 79 141 193 193 178 93 67 111 98 103 135 130 256 240 259 202 119 286 225
165 166 165 161 150 139 125 107 82 96 94 89 69 100 88 101 354 38 82 75 26 195 118 343 333 354 349 82 96 143 228 206 142 164 160 130 153 179 183 233 285 251 276 150 79 287 336
163 164 164 159 149 142 131 113 81 106 105 104 81 83 101 97 26 28 47 63 16 18 88 332 359 2 10 69 75 6 64 314 34 173 177 171 150 206 168 194 282 353 2 38 300 310 308
166 162 165 158 151 141 134 114 84 116 128 106 93 89 92 88 138 101 76 71 77 73 158 12 118 47 25 80 65 72 40 27 335 272 338 72 183 224 186 219 73 12 282 99 19 297 321